Weather reports worldwide

Advertisment
Buenos Aires, Argentina (87585): temperature & dewpoint: 10.01.2018 16:00:00 - 16.01.2018 16:00:00 (ART)Buenos Aires, Argentina (87585): wind speed: 10.01.2018 16:00:00 - 16.01.2018 16:00:00 (ART)Buenos Aires, Argentina (87585): wind direction: 10.01.2018 16:00:00 - 16.01.2018 16:00:00 (ART)Buenos Aires, Argentina (87585): reduced air pressure: 10.01.2018 16:00:00 - 16.01.2018 16:00:00 (ART)Buenos Aires, Argentina (87585): visibility: 10.01.2018 16:00:00 - 16.01.2018 16:00:00 (ART)
Date & Time tt [°C] td [°C] ff [km/h] ff [kn] dd ppp [hPa] vv [km]
16.01.2018 16:00:00 - - - - - - -
16.01.2018 15:00:00 29,3 14,0 8 4 N 1016,0 10
16.01.2018 14:00:00 - - - - - - -
16.01.2018 13:00:00 - - - - - - -
16.01.2018 12:00:00 27,1 19,1 4 2 N 1017,5 10
16.01.2018 11:00:00 - - - - - - -
16.01.2018 10:00:00 - - - - - - -
16.01.2018 09:00:00 23,5 19,3 13 7 NW 1017,4 10
16.01.2018 08:00:00 - - - - - - -
16.01.2018 07:00:00 - - - - - - -
16.01.2018 06:00:00 20,8 18,4 4 2 NE 1016,1 10
16.01.2018 05:00:00 - - - - - - -
16.01.2018 04:00:00 - - - - - - -
16.01.2018 03:00:00 21,6 17,6 11 6 NE 1015,4 10
16.01.2018 02:00:00 - - - - - - -
16.01.2018 01:00:00 - - - - - - -
16.01.2018 00:00:00 22,1 17,8 9 5 NE 1015,2 10
15.01.2018 23:00:00 - - - - - - -
15.01.2018 22:00:00 - - - - - - -
15.01.2018 21:00:00 22,5 17,9 9 5 NE 1013,6 10
15.01.2018 20:00:00 - - - - - - -
15.01.2018 19:00:00 - - - - - - -
15.01.2018 18:00:00 25,4 17,9 15 8 N 1012,7 10
15.01.2018 17:00:00 - - - - - - -
15.01.2018 16:00:00 - - - - - - -
15.01.2018 15:00:00 27,1 18,3 11 6 NW 1013,2 10
15.01.2018 14:00:00 - - - - - - -
15.01.2018 13:00:00 - - - - - - -
15.01.2018 12:00:00 25,4 17,5 4 2 E 1014,0 10
15.01.2018 11:00:00 - - - - - - -
15.01.2018 10:00:00 - - - - - - -
15.01.2018 09:00:00 18,6 16,3 9 5 SE 1013,4 10
15.01.2018 08:00:00 - - - - - - -
15.01.2018 07:00:00 - - - - - - -
15.01.2018 06:00:00 16,0 15,7 9 5 SE 1011,3 10
15.01.2018 05:00:00 - - - - - - -
15.01.2018 04:00:00 - - - - - - -
15.01.2018 03:00:00 16,3 15,1 9 5 SE 1010,9 10
15.01.2018 02:00:00 - - - - - - -
15.01.2018 01:00:00 - - - - - - -
15.01.2018 00:00:00 17,7 15,5 9 5 SE 1011,3 10
14.01.2018 23:00:00 - - - - - - -
14.01.2018 22:00:00 - - - - - - -
14.01.2018 21:00:00 18,3 16,7 11 6 SE 1010,5 10
14.01.2018 20:00:00 - - - - - - -
14.01.2018 19:00:00 - - - - - - -
14.01.2018 18:00:00 20,5 18,4 9 5 SE 1009,3 10
14.01.2018 17:00:00 - - - - - - -
14.01.2018 16:00:00 - - - - - - -
14.01.2018 15:00:00 19,2 18,1 18 10 SE 1010,3 9
14.01.2018 14:00:00 - - - - - - -
14.01.2018 13:00:00 - - - - - - -
14.01.2018 12:00:00 19,0 17,2 15 8 SSE 1010,5 9
14.01.2018 11:00:00 - - - - - - -
14.01.2018 10:00:00 - - - - - - -
14.01.2018 09:00:00 16,8 15,8 15 8 SE 1010,6 9
14.01.2018 08:00:00 - - - - - - -
14.01.2018 07:00:00 - - - - - - -
14.01.2018 06:00:00 17,8 16,6 15 8 SE 1009,9 9
14.01.2018 05:00:00 - - - - - - -
14.01.2018 04:00:00 - - - - - - -
14.01.2018 03:00:00 18,9 16,4 18 10 SE 1009,1 10
14.01.2018 02:00:00 - - - - - - -
14.01.2018 01:00:00 - - - - - - -
14.01.2018 00:00:00 19,8 16,5 13 7 SE 1010,6 10
13.01.2018 23:00:00 - - - - - - -
13.01.2018 22:00:00 - - - - - - -
13.01.2018 21:00:00 21,8 18,3 11 6 SE 1009,7 10
13.01.2018 20:00:00 - - - - - - -
13.01.2018 19:00:00 - - - - - - -
13.01.2018 18:00:00 23,7 22,2 13 7 E 1007,3 9
13.01.2018 17:00:00 - - - - - - -
13.01.2018 16:00:00 - - - - - - -
13.01.2018 15:00:00 29,6 19,8 9 5 N 1007,2 10
13.01.2018 14:00:00 - - - - - - -
13.01.2018 13:00:00 - - - - - - -
13.01.2018 12:00:00 29,8 21,2 5 3 N 1007,6 10
13.01.2018 11:00:00 - - - - - - -
13.01.2018 10:00:00 - - - - - - -
13.01.2018 09:00:00 27,0 21,5 5 3 E 1008,1 10
13.01.2018 08:00:00 - - - - - - -
13.01.2018 07:00:00 - - - - - - -
13.01.2018 06:00:00 23,0 20,6 4 2 NE 1006,5 10
13.01.2018 05:00:00 - - - - - - -
13.01.2018 04:00:00 - - - - - - -
13.01.2018 03:00:00 24,4 19,8 2 1 S 1006,4 10
13.01.2018 02:00:00 - - - - - - -
13.01.2018 01:00:00 - - - - - - -
13.01.2018 00:00:00 24,4 19,0 8 4 W 1006,5 10
12.01.2018 23:00:00 - - - - - - -
12.01.2018 22:00:00 - - - - - - -
12.01.2018 21:00:00 26,1 19,4 2 1 N 1005,7 10
12.01.2018 20:00:00 - - - - - - -
12.01.2018 19:00:00 - - - - - - -
12.01.2018 18:00:00 29,0 22,0 22 12 NW 1005,6 10
12.01.2018 17:00:00 - - - - - - -
12.01.2018 16:00:00 - - - - - - -
12.01.2018 15:00:00 32,4 19,9 11 6 SE 1006,9 10
12.01.2018 14:00:00 - - - - - - -
12.01.2018 13:00:00 - - - - - - -
12.01.2018 12:00:00 30,6 22,0 5 3 NW 1009,1 10
12.01.2018 11:00:00 - - - - - - -
12.01.2018 10:00:00 - - - - - - -
12.01.2018 09:00:00 30,6 21,2 4 2 E 1009,4 10
12.01.2018 08:00:00 - - - - - - -
12.01.2018 07:00:00 - - - - - - -
12.01.2018 06:00:00 27,8 21,3 15 8 NW 1009,2 10
12.01.2018 05:00:00 - - - - - - -
12.01.2018 04:00:00 - - - - - - -
12.01.2018 03:00:00 29,3 20,0 18 10 N 1009,4 10
12.01.2018 02:00:00 - - - - - - -
12.01.2018 01:00:00 - - - - - - -
12.01.2018 00:00:00 29,5 18,3 11 6 E 1011,4 10
11.01.2018 23:00:00 - - - - - - -
11.01.2018 22:00:00 - - - - - - -
11.01.2018 21:00:00 30,8 19,9 8 4 SW 1011,3 10
11.01.2018 20:00:00 - - - - - - -
11.01.2018 19:00:00 - - - - - - -
11.01.2018 18:00:00 34,8 17,3 4 2 N 1009,6 10
11.01.2018 17:00:00 - - - - - - -
11.01.2018 16:00:00 - - - - - - -
11.01.2018 15:00:00 36,7 19,9 4 2 NW 1011,9 10
11.01.2018 14:00:00 - - - - - - -
11.01.2018 13:00:00 - - - - - - -
11.01.2018 12:00:00 35,0 21,2 13 7 NNW 1013,7 10
11.01.2018 11:00:00 - - - - - - -
11.01.2018 10:00:00 - - - - - - -
11.01.2018 09:00:00 29,8 19,5 8 4 NW 1014,7 10
11.01.2018 08:00:00 - - - - - - -
11.01.2018 07:00:00 - - - - - - -
11.01.2018 06:00:00 26,8 20,2 8 4 NW 1013,9 10
11.01.2018 05:00:00 - - - - - - -
11.01.2018 04:00:00 - - - - - - -
11.01.2018 03:00:00 27,7 22,0 9 5 NW 1013,6 10
11.01.2018 02:00:00 - - - - - - -
11.01.2018 01:00:00 - - - - - - -
11.01.2018 00:00:00 29,0 20,7 8 4 E 1014,6 10
10.01.2018 23:00:00 - - - - - - -
10.01.2018 22:00:00 - - - - - - -
10.01.2018 21:00:00 28,4 22,1 9 5 E 1014,3 10
10.01.2018 20:00:00 - - - - - - -
10.01.2018 19:00:00 - - - - - - -
10.01.2018 18:00:00 32,0 21,8 9 5 N 1013,0 10
10.01.2018 17:00:00 - - - - - - -
10.01.2018 16:00:00 - - - - - - -

tt = temperature
td = dewpoint
ff = wind speed
dd = wind direction
ppp = reduced air pressure
vv = visibility

Next stations